#timestamp,LO_Frequency,Hit,StdDev 
1672509615.6,286046998.6,N
1672509635.4,286046998.5,N
1672509655.3,286046998.5,N
1672509675.1,286046998.4,N
1672509695.9,286047000.6,N
1672509715.7,286046999.7,N
1672509735.5,286046999.9,N
1672509755.4,286047001.1,N
1672509775.2,286047000.5,N
1672509795.0,286047000.8,N
1672509795.9,286047000.8,N
1672509815.8,286046998.2,N
1672509835.6,286047001.0,N
1672509855.5,286047000.7,N
1672509875.3,286047000.2,N
1672509895.1,286046999.9,N
1672509915.9,286047000.7,N
1672509935.7,286047001.2,N
1672509955.5,286046998.8,N
1672509975.4,286046999.3,N
1672509995.2,286046998.8,N
1672510015.1,286046998.9,N
1672510016.0,286046998.9,N
1672510035.8,286046998.3,N
1672510055.6,286047000.4,N
1672510075.5,286047000.5,N
1672510095.3,286047000.7,N
1672510115.1,286046998.5,N
1672510135.9,286047000.6,N
1672510155.7,286047002.4,N
1672510175.6,286047006.0,Y
1672510195.4,286047014.7,P
1672510215.2,286047013.1,N
1672510235.1,286047016.4,N
1672510236.0,286047016.4,N
1672510255.8,286047011.0,N
1672510275.7,286047010.2,N
1672510295.5,286047007.5,N
1672510315.3,286047007.2,N
1672510335.2,286047004.4,N
1672510355.0,286047002.0,N
1672510355.9,286047002.0,N
1672510375.7,286047001.5,N
1672510395.6,286047001.5,N
1672510415.4,286047001.8,N
1672510435.3,286047004.3,N
1672510455.1,286047004.1,N
1672510456.0,286047004.1,N
1672510475.8,286047001.3,N
1672510495.7,286047004.0,N
1672510515.5,286047004.4,N
1672510535.3,286047000.2,N
1672510555.2,286047000.4,N
1672510575.0,286047000.9,N
1672510575.9,286047000.9,N
1672510595.8,286047000.9,N
1672510615.6,286046998.5,N
1672510635.4,286046998.1,N
1672510655.3,286046998.2,N
1672510675.1,286047001.2,N
1672510695.8,286046999.2,N
1672510715.7,286046999.3,N
1672510735.5,286047001.0,N
1672510755.4,286046998.9,N
1672510775.2,286047000.7,N
1672510795.0,286046999.8,N
1672510795.9,286046999.8,N
1672510815.8,286047000.0,N
1672510835.6,286047000.7,N
1672510855.5,286047000.5,N
1672510875.3,286047001.0,N
1672510895.1,286046998.5,N
1672510915.9,286046998.3,N
1672510935.7,286046998.1,N
1672510955.5,286046998.1,N
1672510975.4,286047000.6,N
1672510995.2,286047000.7,N
1672511015.1,286046999.7,N
1672511016.0,286046999.7,N
1672511035.8,286047002.7,N
1672511055.6,286047000.1,N
1672511075.5,286047002.7,N
1672511095.3,286046998.6,N
1672511115.1,286046998.4,N
1672511135.9,286047001.2,N
1672511155.7,286046999.3,N
1672511175.6,286047000.7,N
1672511195.4,286046998.7,N
1672511215.2,286046997.1,N
1672511235.1,286046998.7,N
1672511236.0,286046998.7,N
1672511255.8,286047000.8,N
1672511275.6,286046999.6,N
1672511295.5,286046999.5,N
1672511315.3,286046997.2,N
1672511335.2,286046997.5,N
1672511355.9,286046999.5,N
1672511375.7,286046998.2,N
1672511395.6,286047000.9,N
1672511415.4,286047000.0,N
1672511435.2,286047001.2,N
1672511455.1,286047001.0,N
1672511456.0,286047001.0,N
1672511475.8,286047001.1,N
1672511495.7,286046999.8,N
1672511515.5,286047000.5,N
1672511535.3,286047001.0,N
1672511555.2,286047001.0,N
1672511575.0,286047001.2,N
1672511575.9,286047001.2,N
1672511595.7,286047001.1,N
1672511615.6,286047000.8,N
1672511635.4,286047000.4,N
1672511655.3,286047001.1,N
1672511675.1,286047000.6,N
1672511695.8,286047000.3,N
1672511715.7,286047000.9,N
1672511735.5,286047000.5,N
1672511755.3,286046998.6,N
1672511775.2,286047001.2,N
1672511795.0,286046998.2,N
1672511795.9,286046998.2,N
1672511815.8,286046998.4,N
1672511835.6,286047001.2,N
1672511855.4,286047000.3,N
1672511875.3,286046999.9,N
1672511895.1,286047001.0,N
1672511915.9,286046998.3,N
1672511935.7,286046998.6,N
1672511955.5,286046998.4,N
1672511975.4,286046998.5,N
1672511995.2,286046998.6,N
1672512015.0,286047001.2,N
1672512015.9,286047001.2,N
1672512035.8,286046998.8,N
1672512055.6,286046998.7,N
1672512075.5,286046998.8,N
1672512095.3,286046998.1,N
1672512115.1,286047001.0,N
1672512135.9,286047001.2,N
1672512155.7,286046998.5,N
1672512175.5,286046998.4,N
1672512195.4,286046999.2,N
1672512215.2,286046999.4,N
1672512235.1,286047001.0,N
1672512236.0,286047001.0,N
1672512255.8,286047001.1,N
1672512275.6,286046999.4,N
1672512295.5,286046999.1,N
1672512315.3,286046998.1,N
1672512335.1,286047000.9,N
1672512355.9,286047000.5,N
1672512375.7,286046998.1,N
1672512395.6,286046998.6,N
1672512415.4,286046998.8,N
1672512435.2,286046998.2,N
1672512455.1,286046998.8,N
1672512456.0,286046998.8,N
1672512475.8,286046998.8,N
1672512495.6,286046998.8,N
1672512515.5,286046999.2,N
1672512535.3,286046998.5,N
1672512555.2,286046998.1,N
1672512575.9,286046998.2,N
1672512595.7,286046998.7,N
1672512615.6,286047000.8,N
1672512635.4,286047000.5,N
1672512655.2,286046999.3,N
1672512675.1,286046999.4,N
1672512676.0,286046999.4,N
1672512695.8,286046999.3,N
1672512715.7,286047001.1,N
1672512735.5,286046999.0,N
1672512755.3,286046999.4,N
1672512775.2,286046999.4,N
1672512795.0,286046998.9,N
1672512795.9,286046998.9,N
1672512815.8,286046999.3,N
1672512835.6,286047001.2,N
1672512855.4,286047001.2,N
1672512875.3,286047000.2,N
1672512895.1,286047000.8,N
1672512915.8,286047001.2,N
1672512935.7,286046998.2,N
1672512955.5,286047000.5,N
1672512975.3,286047000.2,N
1672512995.2,286047000.1,N
1672513015.0,286047000.9,N
1672513015.9,286047000.9,N
1672513035.8,286046998.6,N
1672513055.6,286046998.1,N
1672513075.4,286047001.0,N
1672513095.3,286046998.9,N
1672513115.1,286047000.6,N
1672513135.9,286046998.7,N
1672513155.7,286046998.3,N
1672513175.5,286046998.9,N
1672513195.4,286046999.5,N
